Goshen, IN

12:41 AM EDT on March 24, 2017 (GMT -0400)
Goshen Municipal

Weather History for KGSH - February, 2012

Change the Weather History Date:

Wednesday, February 1, 2012

  Actual Average Record
Temperature  
Mean Temperature 42 °F -  
Max Temperature 52 °F 33 °F 55 °F (1968)
Min Temperature 32 °F 20 °F -6 °F (1971)
Degree Days  
Heating Degree Days 23    
Moisture  
Dew Point 36 °F    
Average Humidity 84    
Maximum Humidity 93    
Minimum Humidity 73    
Precipitation  
Precipitation 0.00 in - - ()
Sea Level Pressure  
Sea Level Pressure 30.05 in    
Wind  
Wind Speed 8 mph (WNW)    
Max Wind Speed 13 mph    
Max Gust Speed -    
Visibility 8 miles    
Events      
Averages and records for this station are not official NWS values.
T = Trace of Precipitation, MM = Missing Value Source: NWS Daily Summary

Daily Weather History Graph

Daily Weather History Graph

Search for Another Location

Airport or City:

Trip Planner

Search our weather history database for the weather conditions in past years. The results will help you decide how hot, cold, wet, or windy it might be!

Date:

Astronomy

Feb. 01, 2012 Rise Set
Actual Time 7:55 AM EST 5:58 PM EST
Civil Twilight 7:26 AM EST 6:27 PM EST
Nautical Twilight 6:52 AM EST 7:01 PM EST
Astronomical Twilight 6:20 AM EST 7:33 PM EST
Moon 12:24 PM EST (2/1) 2:41 AM EST (2/1)
Length of Visible Light 11h 01m
Length of Day
10h 03m
Waxing Gibbous, 64% of the Moon is Illuminated
Feb 1
Waxing Gibbous
Feb 7
Full
Feb 14
Last Quarter
Feb 21
New
Feb 29
First Quarter

Hourly Weather History & Observations

Time (EST) Temp. Windchill Dew Point Humidity Pressure Visibility Wind Dir Wind Speed Gust Speed Precip Events Conditions
12:50 AM 51.8 °F - 48.2 °F 88% 29.88 in 10.0 mi SW 11.5 mph - N/A   Overcast
12:53 AM 52.0 °F - 48.0 °F 86% 29.88 in 10.0 mi SW 11.5 mph - N/A   Overcast
1:53 AM 51.1 °F - 46.9 °F 86% 29.90 in 10.0 mi WSW 11.5 mph - N/A   Mostly Cloudy
2:06 AM 50.0 °F - 46.4 °F 87% 29.90 in 9.0 mi West 10.4 mph - N/A   Scattered Clouds
2:14 AM 50.0 °F - 46.4 °F 87% 29.90 in 9.0 mi West 11.5 mph - N/A   Mostly Cloudy
2:53 AM 48.9 °F - 46.0 °F 90% 29.93 in 8.0 mi West 12.7 mph - N/A   Overcast
3:53 AM 48.0 °F - 45.0 °F 89% 29.94 in 7.0 mi WNW 11.5 mph - N/A   Mostly Cloudy
4:00 AM 46.4 °F 41.1 °F 42.8 °F 87% 29.94 in 8.0 mi WNW 11.5 mph - N/A   Mostly Cloudy
4:08 AM 46.4 °F 40.7 °F 41.0 °F 81% 29.94 in 9.0 mi WNW 12.7 mph - N/A   Scattered Clouds
4:53 AM 42.1 °F 37.1 °F 37.0 °F 82% 29.97 in 10.0 mi WNW 8.1 mph - N/A   Clear
5:53 AM 39.9 °F 33.9 °F 35.1 °F 83% 29.99 in 10.0 mi WNW 9.2 mph - N/A   Clear
6:53 AM 37.9 °F 32.1 °F 34.0 °F 86% 30.01 in 10.0 mi WNW 8.1 mph - N/A   Clear
7:53 AM 36.0 °F 32.1 °F 33.1 °F 89% 30.04 in 7.0 mi West 4.6 mph - N/A   Clear
8:53 AM 36.0 °F 31.1 °F 33.1 °F 89% 30.07 in 5.0 mi West 5.8 mph - N/A   Scattered Clouds
9:01 AM 37.4 °F 32.1 °F 33.8 °F 87% 30.06 in 6.0 mi WNW 6.9 mph - N/A   Mostly Cloudy
9:12 AM 37.4 °F 32.1 °F 33.8 °F 87% 30.06 in 5.0 mi WNW 6.9 mph - N/A   Scattered Clouds
9:20 AM 37.4 °F 32.1 °F 35.6 °F 93% 30.06 in 5.0 mi NW 6.9 mph - N/A   Mostly Cloudy
9:53 AM 39.0 °F 32.8 °F 35.1 °F 86% 30.08 in 5.0 mi NW 9.2 mph - N/A   Overcast
10:53 AM 39.9 °F 33.9 °F 35.1 °F 83% 30.09 in 6.0 mi NW 9.2 mph - N/A   Haze
11:53 AM 39.9 °F 35.1 °F 35.1 °F 83% 30.11 in 7.0 mi West 6.9 mph - N/A   Overcast
12:53 PM 39.9 °F 37.8 °F 34.0 °F 79% 30.11 in 8.0 mi WNW 3.5 mph - N/A   Overcast
1:53 PM 41.0 °F 38.0 °F 34.0 °F 76% 30.10 in 9.0 mi NNW 4.6 mph - N/A   Overcast
2:15 PM 41.0 °F 35.8 °F 33.8 °F 76% 30.08 in 10.0 mi WNW 8.1 mph - N/A   Overcast
2:53 PM 41.0 °F 37.1 °F 34.0 °F 76% 30.10 in 10.0 mi NW 5.8 mph - N/A   Overcast
3:53 PM 42.1 °F 37.7 °F 34.0 °F 73% 30.10 in 10.0 mi North 6.9 mph - N/A   Mostly Cloudy
4:53 PM 41.0 °F 35.8 °F 34.0 °F 76% 30.12 in 10.0 mi NNW 8.1 mph - N/A   Overcast
5:53 PM 39.0 °F 36.8 °F 32.0 °F 76% 30.14 in 10.0 mi NW 3.5 mph - N/A   Overcast
6:49 PM 37.4 °F - 32.0 °F 81% 30.12 in 10.0 mi Calm Calm - N/A   Scattered Clouds
6:53 PM 37.0 °F - 32.0 °F 82% 30.14 in 10.0 mi Calm Calm - N/A   Mostly Cloudy
7:09 PM 37.4 °F - 32.0 °F 81% 30.12 in 9.0 mi Calm Calm - N/A   Partly Cloudy
7:22 PM 37.4 °F - 32.0 °F 81% 30.12 in 9.0 mi Calm Calm - N/A   Mostly Cloudy
7:53 PM 36.0 °F 32.1 °F 30.9 °F 82% 30.14 in 9.0 mi North 4.6 mph - N/A   Mostly Cloudy
8:42 PM 33.8 °F 28.6 °F 30.2 °F 87% 30.12 in 8.0 mi North 5.8 mph - N/A   Partly Cloudy
8:53 PM 34.0 °F 29.8 °F 30.9 °F 89% 30.13 in 7.0 mi North 4.6 mph - N/A   Partly Cloudy
9:53 PM 34.0 °F - 30.9 °F 89% 30.15 in 7.0 mi Calm Calm - N/A   Clear
10:53 PM 32.0 °F - 28.9 °F 88% 30.16 in 5.0 mi Calm Calm - N/A   Partly Cloudy
11:53 PM 32.0 °F - 28.9 °F 88% 30.17 in 4.0 mi Calm Calm - N/A   Clear